[[{"header":{"parameterUnit":"m.s-1","parameterCategory":1,"la1":30.2991,"la2":30.254,"lo1":-89.0895,"lo2":-89.0444,"dy":0.0017,"dx":0.0017,"nx":28,"ny":28,"refTime":"2023-11-10T03:00:00:Z","depth":0,"parameterNumber":2,"parameterNumberName":"U-component_of_WINDS"},"data":[0,0,0,0,0,0,0,0,0,0,0,0,0,0,0,0,0,0,0,0,0,0,0,0,0,0,0,0,0,0,0,0,0,0,0,0,0,0,0,0,0,0,0,0,0,0,0,0,0,0,0,0,0,0,0,0,0,0,-1.4277,-1.4277,0,-1.4262,-1.4261,-1.4261,-1.4171,-1.4169,-1.4167,-1.4165,-1.4157,-1.4159,-1.4161,0,0,0,0,0,0,0,0,0,0,0,0,0,-1.4235,-1.4236,-1.4277,-1.4277,-1.4276,-1.4262,-1.4261,-1.4261,-1.4172,-1.4169,-1.4167,-1.4164,-1.4157,-1.4159,-1.4161,0,0,0,0,0,0,0,0,0,0,0,0,0,-1.424,-1.4236,-1.4277,-1.423,-1.4225,-1.4262,-1.4261,-1.4261,-1.4172,-1.4169,-1.4166,-1.4163,-1.4156,-1.4159,-1.4161,-1.4244,0,0,-1.417,-1.4171,0,0,0,0,0,0,0,0,-1.424,-1.4242,-1.4237,-1.4233,-1.4228,-1.4215,-1.4244,-1.4256,-1.4173,-1.4193,-1.4165,-1.4161,-1.418,-1.418,-1.4185,-1.4244,-1.4244,-1.417,-1.4172,-1.4173,-1.4174,0,0,0,0,0,0,0,-1.424,-1.4242,-1.4271,-1.4237,-1.4232,-1.4212,-1.4209,-1.4246,-1.4205,-1.4191,-1.4184,-1.4183,-1.4177,-1.4183,-1.4184,-1.4243,-1.417,-1.4173,-1.4174,-1.4175,-1.4371,-1.4374,0,0,0,0,0,0,-1.4245,-1.4242,-1.4271,-1.427,-1.4226,-1.4215,-1.4212,-1.4223,-1.4204,-1.4198,-1.4186,-1.4179,-1.4179,-1.4181,-1.4184,-1.428,-1.4173,-1.4176,-1.4177,-1.4367,-1.4372,-1.4376,0,0,0,0,0,0,-1.4244,-1.4248,-1.4272,-1.4254,-1.4256,-1.4219,-1.4232,-1.4224,-1.423,-1.4201,-1.4194,-1.4199,-1.4177,-1.418,-1.423,-1.4279,-1.4177,-1.4179,-1.4363,-1.4369,-1.4374,-1.4474,0,0,0,0,0,0,-1.4243,-1.4249,-1.4278,-1.4256,-1.4257,-1.4317,-1.4235,-1.4226,-1.4234,-1.4224,-1.4211,-1.4206,-1.4175,-1.4226,-1.4232,-1.4281,-1.4181,-1.4359,-1.4366,-1.4372,-1.4467,-1.4483,-1.4496,0,0,0,0,0,-1.4242,-1.4309,-1.428,-1.4284,-1.4293,-1.4319,-1.4321,-1.4281,-1.4238,-1.4269,-1.425,-1.4206,-1.4272,-1.4232,-1.4238,-1.4288,-1.4356,-1.4364,-1.4372,-1.446,-1.4479,-1.4496,0,0,0,0,0,0,-1.4341,-1.4305,-1.4273,-1.4333,-1.433,-1.4304,-1.4342,-1.4303,-1.4314,-1.4305,-1.4258,-1.4256,-1.4313,-1.4305,-1.4261,-1.4368,-1.4306,-1.4316,-1.4371,-1.439,-1.4404,-1.4406,-1.4184,0,0,0,0,0,-1.4369,-1.4391,-1.4359,-1.4416,-1.4415,-1.4379,-1.4389,-1.4359,-1.4354,-1.4353,-1.4338,-1.4338,-1.4358,-1.4373,-1.439,-1.4464,-1.4461,-1.4502,-1.4517,-1.4529,-1.4539,-1.4579,-1.4597,-1.4402,-1.4402,-1.4402,0,0,-1.4428,-1.4411,-1.4429,-1.4435,-1.4429,-1.4456,-1.4379,-1.441,-1.443,-1.4359,-1.4405,-1.4394,-1.439,-1.4453,-1.448,-1.4448,-1.4592,-1.4539,-1.4549,-1.4552,-1.4589,-1.4608,-1.4624,-1.4407,-1.4406,-1.4405,0,0,-1.4551,-1.4539,-1.4585,-1.458,-1.4571,-1.4546,-1.4557,-1.4537,-1.4526,-1.4571,-1.4518,-1.4542,-1.4578,-1.4578,-1.4583,-1.4705,-1.4666,-1.4712,-1.479,-1.483,-1.4846,-1.4859,-1.4905,-1.4921,-1.4721,-1.4721,-1.4721,0,-1.4627,-1.4662,-1.4615,-1.4649,-1.4655,-1.4588,-1.4636,-1.4634,-1.4632,-1.4639,-1.4602,-1.4646,-1.4639,-1.4702,-1.4731,-1.4736,-1.475,-1.4714,-1.4846,-1.486,-1.4872,-1.4915,-1.4932,-1.4727,-1.4726,-1.4726,-1.4725,0,-1.4757,-1.4783,-1.4822,-1.4819,-1.4828,-1.487,-1.4831,-1.4846,-1.4815,-1.4795,-1.4842,-1.4831,-1.4845,-1.4857,-1.4828,-1.4916,-1.4897,-1.4854,-1.4792,-1.4897,-1.4937,-1.4953,-1.4735,-1.4733,-1.4732,-1.473,0,0,-1.4944,-1.4912,-1.4928,-1.4926,-1.491,-1.493,-1.4969,-1.498,-1.4996,-1.4996,-1.503,-1.5061,-1.5021,-1.5027,-1.4997,-1.5031,-1.5131,-1.4984,-1.4984,-1.5014,-1.523,-1.5264,-1.5284,-1.5104,-1.5106,-1.5109,-1.5231,0,-1.5062,-1.5125,-1.5083,-1.5154,-1.5178,-1.5115,-1.5149,-1.5145,-1.5127,-1.5146,-1.5127,-1.5151,-1.5095,-1.5099,-1.513,-1.5112,-1.5174,-1.5102,-1.5137,-1.5139,-1.5143,-1.5304,-1.534,-1.5456,-1.5246,-1.5249,-1.5251,0,-1.521,-1.5214,-1.5287,-1.5266,-1.5275,-1.5306,-1.5314,-1.5332,-1.5327,-1.5311,-1.5317,-1.5278,-1.5317,-1.5253,-1.5308,-1.5261,-1.5272,-1.5266,-1.5269,-1.5273,-1.5203,-1.5315,-1.5492,-1.5511,-1.5274,-1.5272,-1.5271,0,-1.5341,-1.5366,-1.5412,-1.5412,-1.5389,-1.5413,-1.5405,-1.5395,-1.5405,-1.5412,-1.5418,-1.5431,-1.5439,-1.545,-1.5417,-1.5373,-1.5477,-1.541,-1.5468,-1.547,-1.5496,-1.5495,-1.568,-1.5499,-1.5499,-1.5498,-1.5498,0,-1.548,-1.5528,-1.5471,-1.55,-1.5552,-1.5504,-1.5557,-1.5543,-1.5535,-1.5562,-1.5508,-1.5535,-1.5488,-1.5511,-1.5485,-1.5536,-1.5539,-1.553,-1.5523,-1.5537,-1.5538,-1.5546,-1.5538,-1.5503,-1.5502,-1.5501,-1.55,0,-1.5637,-1.56,-1.5647,-1.562,-1.5615,-1.5655,-1.5633,-1.566,-1.5637,-1.5672,-1.5678,-1.5644,-1.5668,-1.5635,-1.5657,-1.5639,-1.5709,-1.5689,-1.5711,-1.5706,-1.5767,-1.5763,-1.5965,-1.599,-1.5791,-1.5793,-1.5795,0,-1.5729,-1.5764,-1.574,-1.5753,-1.5747,-1.5769,-1.5778,-1.5732,-1.5744,-1.574,-1.5768,-1.5787,-1.58,-1.5843,-1.5822,-1.5838,-1.582,-1.5889,-1.5822,-1.5835,-1.5824,-1.5823,-1.5828,-1.5904,-1.5906,-1.5908,-1.591,0,-1.5898,-1.5877,-1.5891,-1.5899,-1.591,-1.5915,-1.5915,-1.593,-1.5882,-1.5898,-1.5921,-1.5931,-1.5952,-1.5973,-1.5983,-1.5978,-1.5938,-1.5931,-1.5945,-1.5961,-1.5973,-1.597,-1.5751,-1.5927,-1.5925,-1.5924,-1.5923,-1.5922,-1.6026,-1.6055,-1.6042,-1.606,-1.6055,-1.6057,-1.6081,-1.606,-1.6077,-1.6089,-1.6061,-1.6092,-1.6086,-1.6095,-1.6094,-1.6119,-1.6089,-1.611,-1.6116,-1.6123,-1.6133,-1.5966,-1.612,-1.612,-1.6119,-1.6119,-1.6119,0,-1.6194,-1.6182,-1.6199,-1.62,-1.6215,-1.6171,-1.617,-1.6185,-1.6212,-1.6208,-1.6221,-1.6248,-1.6268,-1.6248,-1.6264,-1.6288,-1.627,-1.6294,-1.6294,-1.6293,-1.6157,-1.6144,-1.6308,-1.6308,-1.6308,-1.6308,-1.6308,-1.6308,-1.6283,-1.6329,-1.6308,-1.6352,-1.634,-1.6367,-1.637,-1.6373,-1.6369,-1.6401,-1.6416,-1.6401,-1.6392,-1.6407,-1.6424,-1.6418,-1.6428,-1.6459,-1.6447,-1.6321,-1.6303,-1.6285,-1.6272,-1.6461,-1.6461,-1.6581,-1.6582,-1.6583]},{"header":{"parameterUnit":"m.s-1","parameterCategory":1,"la1":30.2991,"la2":30.254,"lo1":-89.0895,"lo2":-89.0444,"dy":0.0017,"dx":0.0017,"nx":28,"ny":28,"refTime":"2023-11-10T03:00:00:Z","depth":0,"parameterNumber":3,"parameterNumberName":"V-component_of_WINDS"},"data":[0,0,0,0,0,0,0,0,0,0,0,0,0,0,0,0,0,0,0,0,0,0,0,0,0,0,0,0,0,0,0,0,0,0,0,0,0,0,0,0,0,0,0,0,0,0,0,0,0,0,0,0,0,0,0,0,0,0,-2.0288,-2.0286,0,-2.014,-2.0138,-2.0137,-2.0034,-2.0034,-2.0033,-2.0032,-1.9879,-1.9875,-1.9872,0,0,0,0,0,0,0,0,0,0,0,0,0,-2.048,-2.0477,-2.0288,-2.0286,-2.0284,-2.014,-2.0138,-2.0136,-2.0035,-2.0034,-2.0033,-2.0032,-1.988,-1.9876,-1.9872,0,0,0,0,0,0,0,0,0,0,0,0,0,-2.0371,-2.0476,-2.0288,-2.0216,-2.0208,-2.0141,-2.0138,-2.0136,-2.0035,-2.0034,-2.0032,-2.0031,-1.9881,-1.9876,-1.9871,-1.9863,0,0,-1.9856,-1.9853,0,0,0,0,0,0,0,0,-2.0377,-2.0364,-2.0229,-2.0221,-2.0212,-2.0105,-2.0149,-2.0044,-2.0035,-2.0101,-2.0032,-2.0031,-1.9954,-1.9943,-1.9918,-1.9855,-1.9849,-1.9855,-1.9852,-1.985,-1.9848,0,0,0,0,0,0,0,-2.0385,-2.0369,-2.0229,-2.0227,-2.0217,-2.019,-2.0174,-2.0129,-2.0036,-2.0095,-2.0087,-2.0071,-1.995,-1.9923,-1.9914,-1.9847,-1.9855,-1.9851,-1.9848,-1.9846,-1.977,-1.9771,0,0,0,0,0,0,-2.0404,-2.0376,-2.0234,-2.0225,-2.0293,-2.0188,-2.0169,-2.014,-2.0036,-2.0019,-2.0072,-2.0067,-1.9932,-1.992,-1.9908,-1.9892,-1.985,-1.9845,-1.9842,-1.9769,-1.977,-1.9771,0,0,0,0,0,0,-2.0408,-2.0392,-2.024,-2.0298,-2.0277,-2.0186,-2.0154,-2.0138,-2.0111,-2.0019,-2.0001,-2.0062,-1.9931,-1.9915,-1.9875,-1.9885,-1.9843,-1.9838,-1.9767,-1.9769,-1.977,-1.986,0,0,0,0,0,0,-2.0414,-2.0394,-2.0391,-2.0299,-2.0274,-2.0211,-2.0155,-2.0136,-2.0103,-2.0095,-2.0005,-1.9989,-1.9929,-1.9883,-1.987,-1.9877,-1.9834,-1.9766,-1.9768,-1.977,-1.9855,-1.9864,-1.9871,0,0,0,0,0,-2.0421,-2.0421,-2.0391,-2.0375,-2.0268,-2.0211,-2.0197,-2.0128,-2.0104,-2.01,-2.004,-1.9992,-1.9886,-1.988,-1.9864,-1.987,-1.9765,-1.9768,-1.977,-1.9852,-1.9862,-1.9871,0,0,0,0,0,0,-2.0515,-2.0408,-2.0373,-2.0344,-2.0288,-2.0194,-2.0186,-2.0142,-2.0091,-2.0085,-2.0001,-1.9981,-1.995,-1.9905,-1.9901,-1.9856,-1.982,-1.9819,-1.9887,-1.9896,-1.9904,-1.9916,-1.983,0,0,0,0,0,-2.0533,-2.0496,-2.0404,-2.0386,-2.036,-2.0279,-2.0251,-2.0203,-2.0141,-2.0117,-2.0054,-1.9996,-1.9949,-1.992,-1.9871,-1.9848,-1.9827,-1.9844,-1.9852,-1.9859,-1.986,-1.9845,-1.9851,-1.9779,-1.9779,-1.9778,0,0,-2.0568,-2.0505,-2.0487,-2.0404,-2.0355,-2.0318,-2.0259,-2.0223,-2.0195,-2.0111,-2.007,-2.0022,-1.995,-1.9919,-1.9902,-1.9881,-1.9875,-1.9862,-1.9869,-1.9865,-1.9848,-1.9855,-1.9861,-1.978,-1.978,-1.978,0,0,-2.0614,-2.0563,-2.0543,-2.0495,-2.0422,-2.0368,-2.0363,-2.0276,-2.0242,-2.0199,-2.0135,-2.01,-2.0021,-1.9973,-1.9939,-1.9967,-1.9921,-1.9953,-1.9996,-1.9982,-1.9988,-1.9992,-2.0003,-2.0008,-1.9954,-1.9954,-1.9955,0,-2.0667,-2.0611,-2.0538,-2.0506,-2.0472,-2.0394,-2.0374,-2.033,-2.0245,-2.0223,-2.02,-2.01,-2.0046,-2.0003,-2.001,-1.9984,-1.9976,-1.9964,-1.9993,-1.9997,-2.0,-2.001,-2.0014,-1.9959,-1.9958,-1.9958,-1.9958,0,-2.0681,-2.0642,-2.0635,-2.0556,-2.052,-2.0494,-2.0417,-2.0389,-2.0344,-2.0292,-2.025,-2.0182,-2.012,-2.0105,-2.006,-2.0055,-2.0045,-2.0009,-1.997,-2.0013,-2.0021,-2.0023,-1.9965,-1.9964,-1.9962,-1.9961,0,0,-2.0783,-2.0664,-2.0663,-2.0626,-2.054,-2.0508,-2.0478,-2.0418,-2.0396,-2.0339,-2.0312,-2.0247,-2.0214,-2.0174,-2.0123,-2.0111,-2.0139,-2.0076,-2.0073,-2.0091,-2.0129,-2.0159,-2.0164,-2.0107,-2.0107,-2.0107,-2.0136,0,-2.0817,-2.0761,-2.0694,-2.0661,-2.0625,-2.055,-2.0524,-2.0468,-2.0418,-2.038,-2.0324,-2.028,-2.0238,-2.0214,-2.0198,-2.0139,-2.0145,-2.0135,-2.0081,-2.008,-2.0103,-2.0168,-2.0198,-2.0228,-2.0138,-2.0139,-2.0139,0,-2.085,-2.0799,-2.0762,-2.0679,-2.0661,-2.0639,-2.0579,-2.0543,-2.0477,-2.0442,-2.0398,-2.0344,-2.0307,-2.0273,-2.0222,-2.0217,-2.019,-2.0157,-2.0156,-2.015,-2.0113,-2.0164,-2.0236,-2.0242,-2.0143,-2.0142,-2.0142,0,-2.093,-2.0851,-2.0819,-2.079,-2.0692,-2.0679,-2.0637,-2.057,-2.0538,-2.0485,-2.0463,-2.0406,-2.0375,-2.0331,-2.0262,-2.0243,-2.0219,-2.0178,-2.0189,-2.0191,-2.0188,-2.019,-2.0259,-2.0169,-2.0169,-2.0169,-2.0169,0,-2.0976,-2.0957,-2.0854,-2.0835,-2.0811,-2.0734,-2.0712,-2.0663,-2.0605,-2.0574,-2.0505,-2.0477,-2.0387,-2.0349,-2.0294,-2.0261,-2.0247,-2.0217,-2.0203,-2.0224,-2.0228,-2.0207,-2.0203,-2.017,-2.017,-2.0169,-2.0169,0,-2.1063,-2.0993,-2.0954,-2.0865,-2.0842,-2.0828,-2.0751,-2.0729,-2.0675,-2.0637,-2.0624,-2.0539,-2.049,-2.0416,-2.0345,-2.0308,-2.0284,-2.026,-2.0307,-2.0299,-2.0314,-2.0314,-2.0373,-2.0377,-2.0284,-2.0285,-2.0286,0,-2.1098,-2.1081,-2.0991,-2.0966,-2.0927,-2.0888,-2.0855,-2.0778,-2.0747,-2.0671,-2.0658,-2.0604,-2.0557,-2.0482,-2.0413,-2.0358,-2.0333,-2.0357,-2.0324,-2.0346,-2.0335,-2.0337,-2.0336,-2.0366,-2.0367,-2.0368,-2.0369,0,-2.1168,-2.1134,-2.1091,-2.1035,-2.0999,-2.0951,-2.0899,-2.0882,-2.0794,-2.0762,-2.0712,-2.0675,-2.0603,-2.055,-2.0485,-2.0441,-2.0391,-2.038,-2.038,-2.0402,-2.043,-2.0416,-2.033,-2.0379,-2.0378,-2.0378,-2.0377,-2.0377,-2.123,-2.1213,-2.1147,-2.11,-2.1054,-2.1008,-2.0983,-2.0926,-2.0883,-2.0819,-2.0776,-2.0728,-2.0662,-2.057,-2.0529,-2.049,-2.0468,-2.0467,-2.0467,-2.0469,-2.0477,-2.0436,-2.0477,-2.0477,-2.0476,-2.0476,-2.0476,0,-2.1298,-2.1252,-2.121,-2.1141,-2.1105,-2.1061,-2.1001,-2.0974,-2.0933,-2.0876,-2.0832,-2.0774,-2.0722,-2.065,-2.0592,-2.0575,-2.055,-2.0563,-2.0564,-2.0555,-2.0499,-2.0506,-2.0584,-2.0584,-2.0584,-2.0584,-2.0584,-2.0584,-2.1329,-2.1298,-2.1256,-2.1201,-2.1154,-2.1108,-2.1078,-2.1035,-2.0989,-2.0929,-2.0886,-2.0839,-2.0775,-2.0713,-2.0663,-2.0643,-2.0625,-2.0645,-2.0618,-2.0568,-2.0558,-2.0549,-2.0555,-2.0642,-2.0642,-2.0677,-2.0677,-2.0678]}]]